Current weather by "City, St" or "zip code"  
 
Advertise Here

Current Conditions: Chenault Airpark, LA

Overcast


75.0 F

Last Updated on Sep 16 2021, 9:50 pm CDT
Humidity: 94%
Wind Speed: NW 4.6 mph
Barometer 29.86 in
Dewpoint: 73.4 F
Visibility: 10.00 mi
Precip: --
Heat Index: NA
Wind Chill: NA
Current conditions at:

Chenault Airpark, LA (KCWF)

Lat: 30.21667 Lon: 93.15

Local Radar Image active severe weather and emergency alerts image image weather storm and storm spotter reports image weather observation monitoring service image
Local
Radar
Active
Alerts
Storm Reports Obs
Monitoring

Sign-up For Email & Text Message Weather Alert Notification Services



Advertise Here

Observation History for Chenault Airpark, LA


Time Wind
(mph)
Vis
(mi)
Weather Precip (in) Temperature (F) Relative
Humidity
Wind
Chill
(F)
Heat
Index
(F)
Pressure
Air Dwpt altimeter
(in)
sea level
(mb)
Rmks
9:50 pm CDT NW 4.6 10.00 Overcast -- 75.0 73.4 94% NA NA 29.86 M
8:50 pm CDT NW 5.8 10.00 Overcast -- 75.0 73.4 94% NA NA 29.85 M
7:50 pm CDT NW 4.6 5.00 Light Rain Fog/Mist -- 75.0 73.4 94% NA NA 29.83 M
6:50 pm CDT NW 5.8 10.00 Overcast -- 77.0 73.4 89% NA NA 29.82 M
5:50 pm CDT N 8.1 10.00 Overcast -- 79.0 75.2 89% NA NA 29.81 M
4:45 pm CDT N 8.1 10.00 Light Rain Fog/Mist -- 79.0 75.2 89% NA NA 29.80 M
3:45 pm CDT N 6.9 10.00 Fog/Mist -- 79.0 75.2 89% NA NA 29.80 M
2:45 pm CDT N 6.9 7.00 Fog/Mist -- 77.0 73.4 89% NA NA 29.81 M
1:55 pm CDT N 8.1 7.00 Fog/Mist -- 79.0 73.4 84% NA NA 29.83 M
12:45 pm CDT N 9.2 7.00 Fog/Mist -- 75.0 73.4 94% NA NA 29.84 M
11:53 am CDT N 8.1 10.00 Overcast -- 75.0 73.4 94% NA NA 29.86 M
10:50 am CDT NE 8.1 7.00 Mostly Cloudy -- 77.0 73.4 89% NA NA 29.85 M
9:53 am CDT NE 8.1 7.00 Overcast -- 75.0 71.6 89% NA NA 29.84 M
8:47 am CDT NE 8.1 7.00 Overcast -- 73.0 71.6 94% NA NA 29.82 M
7:45 am CDT NE 8.1 5.00 Fog/Mist -- 73.0 71.6 94% NA NA 29.80 M
6:50 am CDT NE 8.1 10.00 Mostly Cloudy -- 73.0 71.6 94% NA NA 29.79 M
5:35 am CDT NE 6.9 10.00 Overcast -- 74.0 71.6 93% NA NA 29.78 M
4:55 am CDT N 6.9 10.00 Overcast -- 74.0 71.2 92% NA NA 29.78 M
4:35 am CDT NE 5.8 10.00 Overcast -- 74.0 71.2 92% NA NA 29.78 M
3:55 am CDT NE 5.8 10.00 Overcast -- 73.0 71.1 92% NA NA 29.77 M
2:55 am CDT NE 8.1 10.00 Overcast -- 74.0 70.9 91% NA NA 29.78 M
1:55 am CDT NE 10.4 10.00 Overcast -- 74.0 70.7 91% NA NA 29.78 M
12:55 am CDT N 8.1 10.00 Overcast -- 74.0 70.5 90% NA NA 29.80 M
11:55 pm CDT N 9.2 10.00 Overcast -- 74.0 70.7 89% NA NA 29.81 M

Regional Weather Observation


De Quincy Industrial Airpark, LA (K5R8)

Overcast
74.0 F

Lake Charles Regional Airport, LA (KLCH)

Overcast
76.0 F

Southland Field, LA (KUXL)

Overcast
76.0 F

De Ridder, Beauregard Parish Airport, LA (KDRI)

NULL
85.0 F

Orange, Orange County Airport, TX (KORG)

Overcast
77.0 F

Jennings Airport, LA (K3R7)

Overcast
75.0 F
Advertise Here


Advertise Here